User: anonymous   Login
Location: NJAA Observatory
(40.6819°N, 74.8979°W)
Time: 08:15:31
(UTC-04:00)
Language:

Cosmos 220 Rocket - Orbit

View from above orbital plane
View from above orbital plane
View from above satellite
View from above satellite

Ground track
Ground track

The orbit data is extracted from the following two-line orbital elements,

1  3230U 68040B   17172.73465376 +.00000140 +00000-0 +18478-4 0  9992
2  3230 074.0355 234.0891 0030492 187.4692 172.6040 14.90155659614956
Epoch (UTC): 21 June 2017 17:37:54
Eccentricity: 0.0030492
inclination: 74.0355°
perigee height: 576 km
apogee height: 619 km
right ascension of ascending node: 234.0891°
argument of perigee: 187.4692°
revolutions per day: 14.90155659
mean anomaly at epoch: 172.6040°
orbit number at epoch: 61495

The dashed part of the orbit path shows where the satellite is in the earth's shadow,  

DLR